Theta_e
300 300 299 297 297 293 291 288 286 284 284 284 284 284 284 284 284 284 284 284 283 282 282 281 280 280 278 277 278 278 278 281 276 276 279 279 279 279 279 280 280 279 279
299 299 297 296 294 290 288 285 284 284 284 283 283 283 282 282 283 283 282 282 281 281 280 280 279 279 278 278 277 276 278 279 279 276 277 278 278 279 278 278 278 279 279
298 297 295 293 291 289 287 284 283 283 282 282 282 281 281 281 282 282 282 281 281 281 280 279 278 278 277 278 278 277 277 278 278 278 276 277 278 278 277 277 277 277 279
297 296 294 292 290 288 285 283 282 281 281 281 281 281 281 281 281 281 281 281 280 280 280 279 279 278 278 278 278 278 277 277 278 277 277 276 276 277 276 275 275 276 276
297 296 294 291 289 286 283 282 281 281 281 281 280 280 280 280 281 281 281 280 280 279 279 279 279 279 281 280 278 277 277 277 277 277 277 275 275 275 274 275 274 274 275
296 293 291 289 287 285 282 281 280 280 280 280 280 279 279 280 284 284 282 280 280 279 277 278 278 280 281 282 281 281 280 278 276 277 276 275 275 275 275 273 273 271 269
290 289 288 287 285 283 282 281 280 279 280 279 279 279 279 280 285 285 283 280 279 278 278 277 277 278 278 279 281 282 282 283 282 278 272 275 275 275 274 272 272 271 271
288 288 287 285 284 282 281 280 279 279 279 279 279 279 279 279 286 285 283 280 279 278 278 277 277 277 278 278 278 277 278 278 280 279 277 277 276 275 274 274 272 270 272
289 287 286 285 283 282 280 280 279 279 279 279 279 279 279 279 286 285 282 279 279 278 278 278 278 277 279 281 277 276 277 277 281 283 282 281 281 281 279 273 264 262 261
288 287 286 285 284 282 281 280 279 278 278 279 279 279 279 279 286 286 282 279 277 277 278 279 279 277 281 282 277 276 274 275 275 272 276 279 280 279 282 276 271 262 264
284 284 283 284 284 283 281 280 279 279 280 279 279 279 279 279 282 287 284 279 278 277 277 277 277 281 281 282 282 275 275 277 276 272 274 273 273 274 273 274 273 270 265
283 283 283 283 283 282 281 279 279 279 279 278 278 277 278 279 282 287 286 282 282 278 277 278 277 282 282 282 282 280 280 279 272 269 271 273 273 274 273 273 273 272 271
280 279 280 280 280 281 280 279 278 278 277 277 277 277 277 278 280 285 287 285 284 279 280 280 281 282 283 283 283 283 280 277 273 272 273 274 275 274 274 272 271 271 270
278 276 277 279 278 278 281 280 279 278 277 277 277 277 277 277 278 280 283 285 284 283 282 281 281 281 282 281 278 281 279 276 275 275 275 274 271 270 269 268 266 266 264
277 277 277 278 278 279 279 280 279 280 280 279 279 279 278 276 278 280 282 283 284 284 281 280 280 279 277 278 276 275 275 276 275 276 276 274 272 270 269 268 266 262 262
278 279 279 279 277 276 277 277 284 283 284 284 284 282 281 282 282 282 283 285 286 286 282 279 278 278 277 275 275 275 275 275 276 276 277 276 273 270 269 269 267 264 263
279 278 279 278 278 278 277 277 276 280 284 284 285 285 285 283 284 284 284 284 286 286 282 281 279 278 277 276 275 276 275 275 276 276 276 275 273 271 269 267 266 265 264
281 280 279 279 279 278 277 277 277 276 277 276 282 283 284 285 284 285 284 284 280 282 281 281 281 280 279 277 276 276 277 277 275 275 275 274 273 271 268 266 266 265 264
278 279 279 279 279 278 276 275 275 276 276 274 274 278 280 284 284 284 285 280 278 278 280 280 281 281 280 279 278 278 278 277 276 274 274 273 272 269 268 267 266 265 263
278 279 280 280 278 278 278 277 277 277 276 277 277 278 279 279 279 280 281 281 280 280 280 280 280 282 280 279 278 279 278 277 276 273 272 271 270 268 267 265 265 263 262
273 275 278 278 278 278 278 277 276 277 276 276 276 277 280 278 278 279 280 281 281 281 282 282 281 281 280 279 278 277 277 276 274 271 271 269 268 265 266 265 264 263 261
270 269 271 276 276 275 275 275 275 275 274 274 274 274 277 273 275 275 275 276 275 273 272 274 277 279 276 277 276 275 274 273 271 269 268 267 266 265 264 263 262 261 260
269 269 269 269 270 271 270 271 271 271 271 271 269 268 265 263 263 266 266 266 265 264 265 265 266 266 267 267 268 270 270 269 268 268 267 265 264 263 262 261 261 260 258
266 266 265 264 265 265 265 263 261 262 263 263 263 262 261 261 261 260 260 259 258 259 259 257 256 257 260 261 262 263 264 264 265 266 266 264 262 261 261 260 259 258 257
264 264 264 263 264 264 264 264 263 263 263 263 262 261 259 259 259 258 257 256 254 254 255 255 255 256 258 258 258 259 262 266 261 263 262 261 260 260 259 258 258 257 256
262 262 262 262 262 262 262 262 262 261 261 260 259 257 257 257 256 256 256 256 254 254 254 254 253 254 256 257 257 260 264 263 260 261 260 260 258 257 257 256 256 255 254
Wind_Speed
7 7 7 6 7 7 6 6 7 7 9 9 9 9 9 8 8 9 9 9 11 9 8 10 8 5 4 4 4 4 3 3 5 2 2 3 4 4 1 2 2 2 3
8 7 7 7 7 8 7 7 7 8 8 9 9 9 9 9 9 11 11 10 12 11 10 11 9 6 6 5 4 6 4 3 4 5 2 3 3 3 2 1 3 2 3
7 8 7 7 7 7 7 8 7 8 8 8 10 10 11 11 10 10 11 11 10 11 11 11 10 9 7 5 5 5 3 3 3 4 4 2 2 2 1 1 1 4 3
6 7 8 8 8 7 7 8 8 8 10 10 9 9 10 10 10 10 11 11 10 9 10 9 9 9 9 9 7 6 4 4 2 5 3 3 2 2 2 1 2 2 5
9 10 11 10 9 9 9 8 7 9 9 9 10 8 9 9 8 11 11 12 13 11 9 9 7 8 13 10 7 6 7 4 4 4 3 3 1 2 2 2 1 4 5
9 9 7 8 9 10 9 9 9 9 9 10 10 11 11 7 20 20 15 12 11 12 11 9 9 10 12 13 12 14 10 7 6 4 2 3 5 3 3 3 1 2 3
8 8 8 9 10 10 9 9 10 10 10 11 10 11 11 10 24 23 20 10 11 11 11 11 10 6 7 6 11 14 13 12 6 5 5 3 4 5 5 3 3 3 3
9 9 9 11 11 11 11 11 10 9 12 12 12 12 12 10 24 23 21 11 9 11 10 11 11 11 9 9 7 6 5 5 6 4 5 5 4 5 5 5 4 2 3
13 12 12 13 12 12 12 12 10 10 9 11 11 12 12 11 25 25 19 10 9 11 9 8 9 12 17 19 10 10 8 8 10 12 10 10 10 10 8 4 0 3 3
8 9 9 10 12 13 12 12 8 7 8 8 9 10 11 11 25 26 19 8 9 8 8 7 12 11 21 20 11 10 10 9 8 4 4 10 11 9 14 6 5 4 2
5 6 7 8 9 9 9 8 10 9 9 9 10 9 11 12 16 27 24 11 10 9 9 8 7 19 20 22 20 10 11 7 12 6 5 3 2 3 3 4 6 5 4
5 6 8 8 7 8 10 8 9 9 9 9 9 8 8 10 16 24 27 18 17 11 10 8 8 21 21 21 18 19 18 12 4 3 5 6 7 7 6 6 7 6 5
4 3 4 5 5 6 9 9 8 8 7 7 8 8 8 8 7 20 23 23 22 10 8 12 18 22 25 19 23 22 18 7 7 6 8 9 8 6 6 4 5 4 4
4 4 4 5 5 5 5 7 7 7 6 6 7 7 6 7 8 9 13 15 17 14 13 9 13 14 15 13 9 16 9 8 9 9 9 5 3 3 5 4 4 4 3
4 3 3 3 3 4 4 6 6 7 9 8 8 8 9 10 11 16 15 12 11 13 10 6 7 6 8 9 7 8 6 7 9 9 8 6 7 7 7 5 4 3 5
6 5 4 4 2 3 4 2 11 10 16 16 16 12 7 12 18 24 26 25 25 23 10 8 9 9 10 10 9 9 9 11 10 9 10 9 8 9 8 6 5 6 7
3 2 3 4 4 5 4 5 6 6 11 15 16 16 16 12 17 22 24 26 26 24 12 9 10 10 10 10 9 10 10 11 10 10 10 10 9 8 9 8 7 7 7
6 7 4 3 4 3 3 3 3 5 6 3 11 12 14 15 15 18 21 19 9 16 9 10 9 8 10 11 10 10 9 8 9 10 10 10 10 10 8 8 8 8 7
3 3 4 3 3 4 3 3 2 2 4 3 2 5 7 14 15 15 18 9 9 9 9 10 10 10 10 9 9 9 10 9 9 10 10 9 9 9 8 8 8 9 9
1 6 5 5 4 3 3 2 3 3 1 1 1 2 3 5 5 6 7 7 7 9 8 9 9 9 9 10 9 8 8 9 8 8 8 8 8 8 8 8 9 8 8
1 1 3 3 3 3 3 2 2 2 3 2 2 1 4 2 1 3 3 6 7 7 7 7 6 8 7 8 9 9 9 9 8 8 8 7 8 8 8 8 7 7 6
2 1 2 3 3 3 2 2 2 3 3 2 2 2 6 4 3 1 1 2 3 3 5 4 2 3 4 6 7 8 8 8 6 6 7 8 8 8 7 7 7 6 6
2 3 5 4 4 4 3 4 3 4 3 3 3 3 3 3 2 3 3 3 4 4 4 4 3 3 3 2 1 2 5 6 6 7 8 8 8 8 8 7 8 7 7
4 5 5 4 4 4 4 4 3 4 4 3 3 3 3 3 2 2 2 3 3 4 3 3 2 3 3 2 2 2 1 1 3 6 8 7 8 9 8 8 8 8 6
6 7 7 6 5 4 4 5 5 5 4 5 4 4 3 2 2 2 2 3 3 3 3 2 2 3 2 2 1 1 2 3 3 5 5 7 8 10 8 7 8 7 6
7 7 6 5 5 5 5 5 5 5 4 3 2 2 2 2 2 2 2 2 2 2 2 1 2 3 3 1 2 3 4 5 4 5 5 5 7 6 6 7 9 6 6
Wind_Direction
170 170 164 166 163 144 147 147 137 133 149 158 160 156 153 147 144 135 133 135 132 131 127 123 115 120 107 102 91 92 90 101 115 101 113 119 178 156 97 1 312 290 299
170 169 170 166 162 151 154 153 145 154 160 157 154 151 151 149 148 149 147 145 137 137 132 121 138 124 117 117 110 110 90 50 112 126 125 157 172 150 142 334 302 291 305
166 166 167 167 163 162 155 152 151 152 153 151 154 158 161 159 154 153 150 146 141 141 139 138 142 136 136 132 110 91 100 78 90 149 135 142 163 157 135 319 326 308 293
173 177 171 168 162 159 150 151 156 160 157 160 165 162 162 156 153 147 145 136 134 139 130 138 144 149 146 132 120 141 128 117 161 110 110 135 170 150 144 199 295 287 308
184 191 186 166 160 156 156 158 156 162 163 159 151 152 154 153 154 150 147 144 143 136 139 137 147 142 146 146 149 149 153 162 147 143 156 133 153 129 166 202 238 302 292
191 204 177 166 160 160 157 160 161 162 159 157 163 161 161 167 168 165 154 153 159 147 140 151 153 146 156 151 164 179 182 162 173 146 178 154 171 180 159 159 195 353 329
182 189 180 162 163 162 158 163 171 170 163 168 167 165 171 166 174 173 169 160 152 147 161 157 152 145 135 150 185 194 195 198 194 192 139 165 165 175 154 159 211 177 239
188 186 171 167 167 164 166 173 171 173 177 173 172 174 172 177 180 177 170 155 156 152 165 171 159 143 172 172 177 184 187 210 203 193 162 183 174 162 158 175 186 209 290
199 187 179 176 174 170 177 177 173 171 180 180 177 174 177 180 184 180 169 157 162 150 166 175 160 156 182 184 181 189 199 206 221 224 212 212 206 200 197 123 161 86 303
209 201 184 179 178 179 176 171 171 175 174 175 173 183 182 180 187 187 172 156 158 151 167 169 180 167 181 190 192 195 199 208 194 198 224 231 223 225 236 176 160 170 187
168 158 162 176 182 178 168 161 157 168 166 174 175 176 181 182 190 189 177 171 169 162 178 183 186 195 188 198 202 201 205 183 207 197 197 204 208 193 180 174 180 182 180
167 161 162 164 160 162 162 156 159 166 168 172 172 176 187 186 195 193 189 185 175 170 187 188 182 195 200 201 208 212 218 206 170 182 194 211 209 208 201 201 202 198 202
107 124 131 127 130 146 154 157 160 166 168 177 183 184 184 183 190 195 197 193 192 185 187 190 189 195 205 206 219 221 215 198 179 197 218 225 215 199 197 179 171 174 196
109 106 112 128 127 139 156 164 170 171 169 176 189 193 175 176 186 200 207 194 195 196 194 194 194 194 201 203 218 226 214 198 199 216 228 221 147 154 174 166 165 189 197
106 102 105 98 135 157 174 176 173 180 183 183 192 187 179 190 199 196 196 193 191 196 167 175 192 183 200 211 206 211 219 206 206 215 223 205 200 184 192 181 180 169 202
141 148 158 134 151 163 150 149 201 192 202 205 198 188 195 195 193 198 203 200 201 200 187 194 198 210 209 210 203 209 212 220 220 212 218 223 207 195 197 190 184 191 215
134 142 127 141 160 168 164 174 188 218 209 218 218 212 207 200 200 200 206 209 210 209 211 200 203 205 217 217 213 208 210 215 217 214 213 212 203 200 189 197 194 198 219
145 150 150 174 173 161 175 180 173 188 203 212 228 221 221 216 212 206 205 211 214 223 220 223 215 209 213 219 217 217 217 212 207 212 212 207 206 198 197 198 200 207 213
138 154 163 162 167 166 153 149 155 177 172 177 148 246 226 222 220 216 213 201 202 212 220 224 226 228 228 217 219 220 217 215 206 208 213 206 200 191 203 199 198 197 199
165 180 172 165 157 152 151 163 154 149 112 89 122 174 169 184 214 216 221 215 203 213 213 222 233 235 217 216 215 217 223 220 215 202 203 200 194 193 198 191 192 194 199
303 31 106 102 114 117 132 134 131 127 143 149 154 115 170 140 182 198 207 213 216 227 224 216 207 222 212 210 211 216 218 218 206 193 197 191 182 190 195 194 191 193 183
5 82 47 89 92 78 77 90 93 96 82 92 60 49 58 42 21 16 26 3 43 45 28 14 336 263 206 195 196 204 210 211 196 183 189 188 186 189 182 182 179 179 179
43 78 68 51 59 79 63 60 57 57 61 69 61 60 46 40 16 22 29 21 24 21 16 25 13 353 357 13 35 171 193 202 194 186 194 188 185 182 177 175 174 178 181
43 72 82 71 70 61 67 66 64 57 53 52 49 45 47 44 35 33 33 30 31 11 10 26 27 349 325 334 346 340 336 145 152 189 181 177 176 168 167 172 177 182 178
44 52 54 51 50 65 78 73 65 59 55 47 40 37 24 24 26 6 32 42 26 8 348 1 0 352 291 262 267 278 255 172 130 146 150 161 170 172 173 175 173 169 165
48 57 61 57 54 50 53 58 57 54 52 47 38 29 18 23 11 20 33 32 7 342 337 345 338 329 331 252 197 210 236 157 151 150 144 151 158 163 163 169 171 171 170